Weather History for Olbia, Italy

Change the Weather History Date:

Monday, August 25, 2014

  Actual Average Record
Temperature  
Mean Temperature 77 °F -  
Max Temperature 88 °F 80 °F 95 °F (2003)
Min Temperature 66 °F 60 °F 62 °F (2005)
Cooling Degree Days 12    
Growing Degree Days 27 (Base 50)    
Moisture  
Dew Point 58 °F    
Average Humidity 52    
Maximum Humidity 73    
Minimum Humidity 20    
Precipitation  
Precipitation 0.00 in 0.05 in - ()
Sea Level Pressure  
Sea Level Pressure 30.05 in    
Wind  
Wind Speed 10 mph ()    
Max Wind Speed 18 mph    
Max Gust Speed -    
Visibility 7.9 miles    
Events      
Averages and records for this station are not official NWS values.
T = Trace of Precipitation, MM = Missing Value Source: Averaged Metar Reports

Daily Weather History Graph

Daily Weather History Graph

Search for Another Location

Airport:

Trip Planner

Search our weather history database for the weather conditions in past years. The results will help you decide how hot, cold, wet, or windy it might be!

Date:

Astronomy

Aug. 25, 2014 Rise Set
Actual Time 6:41 AM CEST 8:05 PM CEST
Civil Twilight 6:12 AM CEST 8:34 PM CEST
Nautical Twilight 5:38 AM CEST 9:08 PM CEST
Astronomical Twilight 5:01 AM CEST 9:45 PM CEST
Moon 6:32 AM CEST (8/25) 7:46 PM CEST (8/25)
Length of Visible Light 14h 21m
Length of Day
13h 24m
Waning Crescent, 0% of the Moon is Illuminated
Aug 25
Waning Crescent
Aug 25
New
Sep 2
First Quarter
Sep 9
Full
Sep 16
Last Quarter

Hourly Weather History & Observations

Time (CEST) Temp. Heat Index Dew Point Humidity Pressure Visibility Wind Dir Wind Speed Gust Speed Precip Events Conditions
12:20 AM 71.6 °F - 57.2 °F 60% 30.04 in - WSW 16.1 mph - N/A   Clear
12:50 AM 71.6 °F - 57.2 °F 60% 30.04 in - WSW 12.7 mph - N/A   Clear
1:20 AM 71.6 °F - 57.2 °F 60% 30.04 in - WSW 11.5 mph - N/A   Clear
1:50 AM 71.6 °F - 57.2 °F 60% 30.04 in - WSW 11.5 mph - N/A   Clear
2:00 AM 71 °F - 56 °F 50% 30.04 in 11 mi WSW 12.7 mph - -  
2:20 AM 69.8 °F - 57.2 °F 64% 30.04 in - SW 11.5 mph - N/A   Clear
2:50 AM 69.8 °F - 57.2 °F 64% 30.04 in - SW 9.2 mph - N/A   Clear
3:20 AM 69.8 °F - 57.2 °F 64% 30.04 in - SW 8.1 mph - N/A   Clear
3:50 AM 68.0 °F - 57.2 °F 68% 30.04 in - SW 8.1 mph - N/A   Clear
4:20 AM 69.8 °F - 59.0 °F 68% 30.04 in - South 6.9 mph - N/A   Clear
5:00 AM 68 °F - 58 °F 63% 30.04 in 11 mi South 5.8 mph - -  
5:20 AM 68.0 °F - 59.0 °F 73% 30.04 in - South 5.8 mph - N/A   Clear
5:50 AM 68.0 °F - 59.0 °F 73% 30.04 in - SW 9.2 mph - N/A   Clear
6:20 AM 68.0 °F - 59.0 °F 73% 30.04 in - SW 6.9 mph - N/A   Clear
6:50 AM 68.0 °F - 59.0 °F 73% 30.04 in - SW 6.9 mph - N/A   Clear
7:20 AM 69.8 °F - 59.0 °F 68% 30.04 in - SW 11.5 mph - N/A   Clear
7:50 AM 71.6 °F - 59.0 °F 64% 30.06 in 6.2 mi WSW 10.4 mph - N/A   Partly Cloudy
8:00 AM 72 °F - 60 °F 56% 30.06 in 11 mi WSW 9.2 mph - -   Scattered Clouds
8:20 AM 73.4 °F - 60.8 °F 65% 30.06 in 6.2 mi West 9.2 mph - N/A   Partly Cloudy
8:50 AM 75.2 °F - 60.8 °F 61% 30.06 in 6.2 mi WSW 13.8 mph - N/A   Partly Cloudy
9:20 AM 75.2 °F - 60.8 °F 61% 30.06 in 6.2 mi West 11.5 mph - N/A   Partly Cloudy
9:50 AM 78.8 °F - 59.0 °F 51% 30.06 in 6.2 mi WSW 15.0 mph - N/A   Partly Cloudy
10:20 AM 78.8 °F - 57.2 °F 47% 30.06 in 6.2 mi West 12.7 mph - N/A   Partly Cloudy
10:50 AM 80.6 °F 80.5 °F 55.4 °F 42% 30.06 in 6.2 mi West 12.7 mph - N/A   Partly Cloudy
11:00 AM 81 °F - 55 °F 31% 30.06 in 11 mi West 12.7 mph - -   Scattered Clouds
11:20 AM 82.4 °F 81.4 °F 53.6 °F 37% 30.06 in 6.2 mi West 13.8 mph - N/A   Partly Cloudy
11:50 AM 82.4 °F 81.4 °F 53.6 °F 37% 30.06 in 6.2 mi WSW 12.7 mph - N/A   Partly Cloudy
12:20 PM 84.2 °F - 50.0 °F 30% 30.06 in 6.2 mi West 16.1 mph - N/A   Partly Cloudy
12:50 PM 84.2 °F - 51.8 °F 33% 30.06 in - West 12.7 mph - N/A   Clear
1:20 PM 86.0 °F - 48.2 °F 27% 30.06 in - West 12.7 mph - N/A   Clear
1:50 PM 87.8 °F - 51.8 °F 29% 30.06 in - WSW 13.8 mph - N/A   Clear
2:00 PM 87 °F - 52 °F 20% 30.06 in 11 mi WSW 18.4 mph - -   Scattered Clouds
2:20 PM 87.8 °F 85.7 °F 53.6 °F 31% 30.06 in - West 13.8 mph - N/A   Clear
2:50 PM 87.8 °F - 51.8 °F 29% 30.04 in - West 13.8 mph - N/A   Clear
3:20 PM 87.8 °F - 50.0 °F 27% 30.04 in 6.2 mi West 15.0 mph - N/A   Partly Cloudy
3:50 PM 87.8 °F 85.7 °F 53.6 °F 31% 30.04 in 6.2 mi West 12.7 mph - N/A   Partly Cloudy
4:20 PM 87.8 °F 85.7 °F 53.6 °F 31% 30.04 in 6.2 mi West 13.8 mph - N/A   Partly Cloudy
4:50 PM 86.0 °F 84.5 °F 55.4 °F 35% 30.04 in 6.2 mi West 15.0 mph - N/A   Partly Cloudy
5:00 PM 86 °F - 57 °F 27% 30.04 in 11 mi West 13.8 mph - -   Scattered Clouds
5:20 PM 86.0 °F 84.5 °F 55.4 °F 35% 30.04 in 6.2 mi West 13.8 mph - N/A   Partly Cloudy
5:50 PM 86.0 °F 84.9 °F 57.2 °F 37% 30.01 in - West 12.7 mph - N/A   Clear
6:20 PM 86.0 °F 84.5 °F 55.4 °F 35% 30.01 in - West 11.5 mph - N/A   Clear
6:50 PM 84.2 °F 83.0 °F 55.4 °F 37% 30.01 in - West 10.4 mph - N/A   Clear
7:20 PM 82.4 °F 82.0 °F 57.2 °F 42% 30.01 in - WNW 8.1 mph - N/A   Clear
7:50 PM 80.6 °F 81.5 °F 60.8 °F 51% 30.04 in - NNE 4.6 mph - N/A   Clear
8:00 PM 79 °F - 61 °F 44% 30.04 in 11 mi NE 4.6 mph - -   Scattered Clouds
8:20 PM 77.0 °F - 62.6 °F 61% 30.04 in - NNE 3.5 mph - N/A   Clear
8:50 PM 75.2 °F - 66.2 °F 73% 30.04 in - East 5.8 mph - N/A   Clear
9:20 PM 75.2 °F - 64.4 °F 69% 30.04 in - Variable 2.3 mph - N/A   Clear
9:50 PM 75.2 °F - 64.4 °F 69% 30.06 in - South 3.5 mph - N/A   Clear
10:20 PM 75.2 °F - 64.4 °F 69% 30.06 in - SSW 5.8 mph - N/A   Clear
10:50 PM 73.4 °F - 64.4 °F 73% 30.04 in - Variable 2.3 mph - N/A   Clear
11:00 PM 73 °F - 63 °F 64% 30.04 in 11 mi SW 2.3 mph - -   Scattered Clouds
11:20 PM 71.6 °F - 62.6 °F 73% 30.04 in - SSW 3.5 mph - N/A   Clear
11:50 PM 69.8 °F - 60.8 °F 73% 30.06 in - SSW 3.5 mph - N/A   Clear